,,Stat6,,Stat2,,Stat8,,Stat9,,Stat10,,Wind1,,Wind1,
time,status,PA1M_AVG,status,PR1M_SUM,status,RH1M_AVG,status,SR1M_AVG,status,TA1M_AVG,status,W1dAve1m,status,W1sAve1m,
Tue Nov 30 17:00:00 2004,VALID,918.778,VALID,0,VALID,100,VALID,0,VALID,19.2595,VALID,107,VALID,0.715732,
Tue Nov 30 17:01:00 2004,VALID,918.773,VALID,0,VALID,100,VALID,-0.0169808,VALID,19.2563,VALID,84,VALID,0.781068,
Tue Nov 30 17:02:00 2004,VALID,918.78,VALID,0,VALID,100,VALID,0,VALID,19.2921,VALID,67,VALID,0.665838,
Tue Nov 30 17:03:00 2004,VALID,918.768,VALID,0,VALID,100,VALID,-0.0169808,VALID,19.2918,VALID,73,VALID,0.765439,
Tue Nov 30 17:04:00 2004,VALID,918.76,VALID,0,VALID,100,VALID,-0.0169808,VALID,19.2856,VALID,60,VALID,0.343217,
Tue Nov 30 17:05:00 2004,VALID,918.737,VALID,0,VALID,100,VALID,-0.0169808,VALID,19.3015,VALID,49,VALID,0.421131,
Tue Nov 30 17:06:00 2004,VALID,918.722,VALID,0,VALID,100,VALID,0,VALID,19.3144,VALID,49,VALID,0.685501,
Tue Nov 30 17:07:00 2004,VALID,918.69,VALID,0,VALID,100,VALID,-0.0169808,VALID,19.3241,VALID,51,VALID,0.89117,
Tue Nov 30 17:08:00 2004,VALID,918.67,VALID,0,VALID,100,VALID,-0.0169808,VALID,19.3244,VALID,67,VALID,0.902439,
Tue Nov 30 17:09:00 2004,VALID,918.642,VALID,0,VALID,100,VALID,-0.0509425,VALID,19.2988,VALID,74,VALID,0.732469,
Tue Nov 30 17:10:00 2004,VALID,918.625,VALID,0,VALID,100,VALID,0,VALID,19.2856,VALID,72,VALID,0.801897,
Tue Nov 30 17:11:00 2004,VALID,918.615,VALID,0,VALID,100,VALID,-0.0849042,VALID,19.2928,VALID,81,VALID,0.652058,
Tue Nov 30 17:12:00 2004,VALID,918.603,VALID,0,VALID,100,VALID,-0.0339617,VALID,19.2565,VALID,93,VALID,0.779762,
Tue Nov 30 17:13:00 2004,VALID,918.578,VALID,0.2,VALID,100,VALID,-0.0339617,VALID,19.2469,VALID,98,VALID,0.653232,
Tue Nov 30 17:14:00 2004,VALID,918.572,VALID,0,VALID,100,VALID,-0.0169808,VALID,19.2434,VALID,106,VALID,0.855078,
Tue Nov 30 17:15:00 2004,VALID,918.548,VALID,0,VALID,100,VALID,-0.0169808,VALID,19.2369,VALID,103,VALID,0.913542,
Tue Nov 30 17:16:00 2004,VALID,918.523,VALID,0,VALID,100,VALID,-0.0509425,VALID,19.2402,VALID,96,VALID,0.604833,
Tue Nov 30 17:17:00 2004,VALID,918.511,VALID,0,VALID,100,VALID,-0.0339617,VALID,19.2533,VALID,81,VALID,0.735137,
Tue Nov 30 17:18:00 2004,VALID,918.483,VALID,0,VALID,100,VALID,-0.0339617,VALID,19.2369,VALID,93,VALID,0.857279,
Tue Nov 30 17:19:00 2004,VALID,918.448,VALID,0,VALID,100,VALID,-0.0169808,VALID,19.2498,VALID,76,VALID,0.847284,
Tue Nov 30 17:20:00 2004,VALID,918.409,VALID,0,VALID,100,VALID,0,VALID,19.26,VALID,64,VALID,1.0928,
Tue Nov 30 17:21:00 2004,VALID,918.39,VALID,0,VALID,100,VALID,0,VALID,19.2531,VALID,79,VALID,1.22456,
Tue Nov 30 17:22:00 2004,VALID,918.378,VALID,0,VALID,100,VALID,-0.0169808,VALID,19.2402,VALID,79,VALID,1.23624,
Tue Nov 30 17:23:00 2004,VALID,918.382,VALID,0,VALID,100,VALID,-0.0169808,VALID,19.224,VALID,81,VALID,1.08774,
Tue Nov 30 17:24:00 2004,VALID,918.374,VALID,0,VALID,100,VALID,0,VALID,19.23,VALID,70,VALID,0.923209,
Tue Nov 30 17:25:00 2004,VALID,918.369,VALID,0,VALID,100,VALID,0,VALID,19.2369,VALID,81,VALID,0.875191,
Tue Nov 30 17:26:00 2004,VALID,918.375,VALID,0,VALID,100,VALID,-0.0169808,VALID,19.2307,VALID,92,VALID,0.881359,
Tue Nov 30 17:27:00 2004,VALID,918.377,VALID,0,VALID,100,VALID,0,VALID,19.2272,VALID,90,VALID,0.934411,
Tue Nov 30 17:28:00 2004,VALID,918.356,VALID,0,VALID,100,VALID,0,VALID,19.2339,VALID,86,VALID,0.751999,
Tue Nov 30 17:29:00 2004,VALID,918.349,VALID,0,VALID,100,VALID,0,VALID,19.2305,VALID,59,VALID,0.500888,
Tue Nov 30 17:30:00 2004,VALID,918.353,VALID,0,VALID,100,VALID,-0.0339617,VALID,19.2439,VALID,88,VALID,0.629542,
Tue Nov 30 17:31:00 2004,VALID,918.328,VALID,0,VALID,100,VALID,0,VALID,19.2307,VALID,81,VALID,0.673921,
Tue Nov 30 17:32:00 2004,VALID,918.317,VALID,0,VALID,100,VALID,-0.0169808,VALID,19.224,VALID,65,VALID,0.904251,
Tue Nov 30 17:33:00 2004,VALID,918.318,VALID,0,VALID,100,VALID,-0.0169808,VALID,19.2213,VALID,71,VALID,0.783507,
Tue Nov 30 17:34:00 2004,VALID,918.323,VALID,0,VALID,100,VALID,-0.0339617,VALID,19.218,VALID,62,VALID,0.37173,
Tue Nov 30 17:35:00 2004,VALID,918.332,VALID,0,VALID,100,VALID,0,VALID,19.2277,VALID,62,VALID,0.445694,
Tue Nov 30 17:36:00 2004,VALID,918.332,VALID,0,VALID,100,VALID,0,VALID,19.2213,VALID,60,VALID,0.451758,
Tue Nov 30 17:37:00 2004,VALID,918.333,VALID,0,VALID,100,VALID,0.0169808,VALID,19.2374,VALID,59,VALID,0.432813,
Tue Nov 30 17:38:00 2004,VALID,918.314,VALID,0,VALID,100,VALID,0.0169808,VALID,19.2533,VALID,58,VALID,0.562832,
Tue Nov 30 17:39:00 2004,VALID,918.298,VALID,0,VALID,100,VALID,-0.0169808,VALID,19.2327,VALID,58,VALID,0.542696,
Tue Nov 30 17:40:00 2004,VALID,918.27,VALID,0,VALID,100,VALID,0,VALID,19.2372,VALID,59,VALID,0.616602,
Tue Nov 30 17:41:00 2004,VALID,918.24,VALID,0,VALID,100,VALID,-0.0169808,VALID,19.2312,VALID,69,VALID,0.797447,
Tue Nov 30 17:42:00 2004,VALID,918.191,VALID,0,VALID,100,VALID,-0.0169808,VALID,19.2109,VALID,79,VALID,0.833757,
Tue Nov 30 17:43:00 2004,VALID,918.155,VALID,0,VALID,100,VALID,-0.0169808,VALID,19.2021,VALID,83,VALID,1.07467,
Tue Nov 30 17:44:00 2004,VALID,918.139,VALID,0,VALID,100,VALID,-0.0339617,VALID,19.2017,VALID,81,VALID,0.928961,
Tue Nov 30 17:45:00 2004,VALID,918.118,VALID,0,VALID,100,VALID,-0.0509425,VALID,19.2215,VALID,59,VALID,0.931108,
Tue Nov 30 17:46:00 2004,VALID,918.09,VALID,0,VALID,100,VALID,0,VALID,19.2374,VALID,36,VALID,1.15305,
Tue Nov 30 17:47:00 2004,VALID,918.068,VALID,0,VALID,100,VALID,-0.0339617,VALID,19.2374,VALID,44,VALID,1.22898,
Tue Nov 30 17:48:00 2004,VALID,918.042,VALID,0,VALID,100,VALID,-0.0339617,VALID,19.2441,VALID,46,VALID,1.27121,
Tue Nov 30 17:49:00 2004,VALID,918.015,VALID,0,VALID,100,VALID,-0.0339617,VALID,19.2506,VALID,50,VALID,1.08339,
Tue Nov 30 17:50:00 2004,VALID,917.979,VALID,0,VALID,100,VALID,0,VALID,19.263,VALID,55,VALID,1.24638,
Tue Nov 30 17:51:00 2004,VALID,917.947,VALID,0,VALID,100,VALID,0,VALID,19.2598,VALID,47,VALID,1.16025,
Tue Nov 30 17:52:00 2004,VALID,917.915,VALID,0,VALID,100,VALID,0,VALID,19.269,VALID,53,VALID,1.17931,
Tue Nov 30 17:53:00 2004,VALID,917.872,VALID,0,VALID,100,VALID,-0.0339617,VALID,19.2796,VALID,51,VALID,1.18867,
Tue Nov 30 17:54:00 2004,VALID,917.849,VALID,0,VALID,100,VALID,-0.0169808,VALID,19.2859,VALID,50,VALID,0.938734,
Tue Nov 30 17:55:00 2004,VALID,917.825,VALID,0,VALID,100,VALID,-0.0339617,VALID,19.2918,VALID,60,VALID,0.812706,
Tue Nov 30 17:56:00 2004,VALID,917.802,VALID,0,VALID,100,VALID,0,VALID,19.3052,VALID,63,VALID,0.877362,
Tue Nov 30 17:57:00 2004,VALID,917.778,VALID,0,VALID,100,VALID,-0.0169808,VALID,19.3052,VALID,72,VALID,0.830035,
Tue Nov 30 17:58:00 2004,VALID,917.75,VALID,0,VALID,100,VALID,0,VALID,19.2951,VALID,73,VALID,1.06117,
Tue Nov 30 17:59:00 2004,VALID,917.729,VALID,0,VALID,100,VALID,0,VALID,19.2916,VALID,72,VALID,1.06898,
Tue Nov 30 18:00:00 2004,VALID,917.713,VALID,0,VALID,100,VALID,0,VALID,19.3018,VALID,73,VALID,0.73544,
Tue Nov 30 18:01:00 2004,VALID,917.68,VALID,0,VALID,100,VALID,-0.0169808,VALID,19.3015,VALID,77,VALID,0.635861,
Tue Nov 30 18:02:00 2004,VALID,917.655,VALID,0,VALID,100,VALID,-0.0679233,VALID,19.3186,VALID,77,VALID,0.697493,
Tue Nov 30 18:03:00 2004,VALID,917.645,VALID,0,VALID,100,VALID,-0.0679233,VALID,19.3221,VALID,72,VALID,0.571987,
Tue Nov 30 18:04:00 2004,VALID,917.628,VALID,0,VALID,100,VALID,-0.101885,VALID,19.3348,VALID,67,VALID,0.587652,
Tue Nov 30 18:05:00 2004,VALID,917.61,VALID,0,VALID,100,VALID,-0.0849042,VALID,19.3253,VALID,53,VALID,0.584121,
Tue Nov 30 18:06:00 2004,VALID,917.605,VALID,0,VALID,100,VALID,-0.101885,VALID,19.3323,VALID,36,VALID,0.567294,
Tue Nov 30 18:07:00 2004,VALID,917.596,VALID,0,VALID,100,VALID,-0.0849042,VALID,19.3124,VALID,42,VALID,0.525981,
Tue Nov 30 18:08:00 2004,VALID,917.59,VALID,0,VALID,100,VALID,-0.101885,VALID,19.3196,VALID,46,VALID,0.435764,
Tue Nov 30 18:09:00 2004,VALID,917.581,VALID,0,VALID,100,VALID,-0.101885,VALID,19.3194,VALID,46,VALID,0.16654,
Tue Nov 30 18:10:00 2004,VALID,917.575,VALID,0,VALID,100,VALID,-0.101885,VALID,19.3224,VALID,46,VALID,0.350472,
Tue Nov 30 18:11:00 2004,VALID,917.557,VALID,0,VALID,100,VALID,-0.101885,VALID,19.3353,VALID,33,VALID,0.444586,
Tue Nov 30 18:12:00 2004,VALID,917.548,VALID,0,VALID,100,VALID,-0.101885,VALID,19.2995,VALID,16,VALID,0.5242,
Tue Nov 30 18:13:00 2004,VALID,917.536,VALID,0,VALID,100,VALID,-0.101885,VALID,19.2965,VALID,5,VALID,0.359747,
Tue Nov 30 18:14:00 2004,VALID,917.529,VALID,0,VALID,100,VALID,-0.0849042,VALID,19.3025,VALID,4,VALID,0.449505,
Tue Nov 30 18:15:00 2004,VALID,917.518,VALID,0,VALID,100,VALID,-0.0679233,VALID,19.2995,VALID,4,VALID,0.357329,
Tue Nov 30 18:16:00 2004,VALID,917.496,VALID,0,VALID,100,VALID,-0.0679233,VALID,19.2836,VALID,4,VALID,0.530107,
Tue Nov 30 18:17:00 2004,VALID,917.486,VALID,0,VALID,100,VALID,-0.0339617,VALID,19.269,VALID,359,VALID,0.509766,
Tue Nov 30 18:18:00 2004,VALID,917.477,VALID,0,VALID,100,VALID,0.0169808,VALID,19.2824,VALID,358,VALID,0.323847,
Tue Nov 30 18:19:00 2004,VALID,917.47,VALID,0,VALID,100,VALID,0.0169808,VALID,19.2951,VALID,358,VALID,0.352805,
Tue Nov 30 18:20:00 2004,VALID,917.468,VALID,0,VALID,100,VALID,0.0339617,VALID,19.2851,VALID,358,VALID,0.228087,
Tue Nov 30 18:21:00 2004,VALID,917.461,VALID,0,VALID,100,VALID,0.0339617,VALID,19.2824,VALID,358,VALID,0.110465,
Tue Nov 30 18:22:00 2004,VALID,917.46,VALID,0,VALID,100,VALID,0.0169808,VALID,19.2757,VALID,358,VALID,0,
Tue Nov 30 18:23:00 2004,VALID,917.475,VALID,0,VALID,100,VALID,0.0339617,VALID,19.2821,VALID,358,VALID,0,
Tue Nov 30 18:24:00 2004,VALID,917.492,VALID,0,VALID,100,VALID,0,VALID,19.2946,VALID,358,VALID,0,
Tue Nov 30 18:25:00 2004,VALID,917.506,VALID,0,VALID,100,VALID,0.0169808,VALID,19.2983,VALID,358,VALID,0.223722,
Tue Nov 30 18:26:00 2004,VALID,917.516,VALID,0,VALID,100,VALID,0.0169808,VALID,19.2821,VALID,323,VALID,0.589208,
Tue Nov 30 18:27:00 2004,VALID,917.55,VALID,0,VALID,100,VALID,0,VALID,19.2821,VALID,274,VALID,0.599564,
Tue Nov 30 18:28:00 2004,VALID,917.582,VALID,0,VALID,100,VALID,0,VALID,19.2759,VALID,244,VALID,0.924733,
Tue Nov 30 18:29:00 2004,VALID,917.601,VALID,0,VALID,100,VALID,0,VALID,19.2759,VALID,211,VALID,0.668826,
Tue Nov 30 18:30:00 2004,VALID,917.63,VALID,0,VALID,100,VALID,0.0169808,VALID,19.2658,VALID,222,VALID,0.653023,
Tue Nov 30 18:31:00 2004,VALID,917.655,VALID,0,VALID,100,VALID,0.0339617,VALID,19.2851,VALID,218,VALID,0.786337,
Tue Nov 30 18:32:00 2004,VALID,917.665,VALID,0,VALID,100,VALID,0.0169808,VALID,19.2879,VALID,237,VALID,0.772711,
Tue Nov 30 18:33:00 2004,VALID,917.671,VALID,0,VALID,100,VALID,0.0169808,VALID,19.3015,VALID,247,VALID,0.556463,
Tue Nov 30 18:34:00 2004,VALID,917.661,VALID,0,VALID,100,VALID,0,VALID,19.3052,VALID,221,VALID,0.521019,
Tue Nov 30 18:35:00 2004,VALID,917.656,VALID,0,VALID,100,VALID,0.0169808,VALID,19.2821,VALID,220,VALID,0.700457,
Tue Nov 30 18:36:00 2004,VALID,917.635,VALID,0,VALID,100,VALID,0,VALID,19.2687,VALID,234,VALID,0.820135,
Tue Nov 30 18:37:00 2004,VALID,917.608,VALID,0,VALID,100,VALID,0.0169808,VALID,19.2501,VALID,227,VALID,1.18872,
Tue Nov 30 18:38:00 2004,VALID,917.601,VALID,0,VALID,100,VALID,0,VALID,19.2263,VALID,214,VALID,0.795058,
Tue Nov 30 18:39:00 2004,VALID,917.564,VALID,0,VALID,100,VALID,0.0339617,VALID,19.2434,VALID,227,VALID,0.396802,
Tue Nov 30 18:40:00 2004,VALID,917.561,VALID,0,VALID,100,VALID,0,VALID,19.227,VALID,189,VALID,0.558689,
Tue Nov 30 18:41:00 2004,VALID,917.542,VALID,0,VALID,100,VALID,0.0169808,VALID,19.2501,VALID,219,VALID,0.317535,
Tue Nov 30 18:42:00 2004,VALID,917.521,VALID,0,VALID,100,VALID,0.0169808,VALID,19.227,VALID,210,VALID,0.536204,
Tue Nov 30 18:43:00 2004,VALID,917.531,VALID,0,VALID,100,VALID,0,VALID,19.2168,VALID,204,VALID,0.478849,
Tue Nov 30 18:44:00 2004,VALID,917.524,VALID,0,VALID,100,VALID,0,VALID,19.2173,VALID,201,VALID,0.314174,
Tue Nov 30 18:45:00 2004,VALID,917.513,VALID,0,VALID,100,VALID,0,VALID,19.2138,VALID,201,VALID,0.208939,
Tue Nov 30 18:46:00 2004,VALID,917.515,VALID,0,VALID,100,VALID,0,VALID,19.2302,VALID,200,VALID,0.283249,
Tue Nov 30 18:47:00 2004,VALID,917.492,VALID,0,VALID,100,VALID,-0.0849042,VALID,19.2317,VALID,192,VALID,0.310082,
Tue Nov 30 18:48:00 2004,VALID,917.485,VALID,0,VALID,100,VALID,-0.101885,VALID,19.222,VALID,192,VALID,0.144259,
Tue Nov 30 18:49:00 2004,VALID,917.485,VALID,0,VALID,100,VALID,-0.101885,VALID,19.219,VALID,222,VALID,0.550037,
Tue Nov 30 18:50:00 2004,VALID,917.456,VALID,0,VALID,100,VALID,-0.0849042,VALID,19.2222,VALID,235,VALID,0.155449,
Tue Nov 30 18:51:00 2004,VALID,917.452,VALID,0,VALID,100,VALID,-0.0679233,VALID,19.2193,VALID,233,VALID,0.323946,
Tue Nov 30 18:52:00 2004,VALID,917.442,VALID,0,VALID,100,VALID,-0.101885,VALID,19.2059,VALID,230,VALID,0.407118,
Tue Nov 30 18:53:00 2004,VALID,917.436,VALID,0,VALID,100,VALID,-0.0849042,VALID,19.2029,VALID,235,VALID,0.387005,
Tue Nov 30 18:54:00 2004,VALID,917.432,VALID,0,VALID,100,VALID,-0.101885,VALID,19.2091,VALID,235,VALID,0.217152,
Tue Nov 30 18:55:00 2004,VALID,917.431,VALID,0,VALID,100,VALID,-0.118866,VALID,19.2026,VALID,235,VALID,0.218378,
Tue Nov 30 18:56:00 2004,VALID,917.413,VALID,0,VALID,100,VALID,-0.0849042,VALID,19.1959,VALID,200,VALID,0.40483,
Tue Nov 30 18:57:00 2004,VALID,917.399,VALID,0,VALID,100,VALID,-0.0679233,VALID,19.1957,VALID,180,VALID,0.13157,
Tue Nov 30 18:58:00 2004,VALID,917.391,VALID,0,VALID,100,VALID,-0.101885,VALID,19.1892,VALID,180,VALID,0.012718,
Tue Nov 30 18:59:00 2004,VALID,917.369,VALID,0,VALID,100,VALID,-0.0849042,VALID,19.2026,VALID,180,VALID,0,
Tue Nov 30 19:00:00 2004,VALID,917.365,VALID,0,VALID,100,VALID,-0.101885,VALID,19.2193,VALID,180,VALID,0,
Tue Nov 30 19:01:00 2004,VALID,917.352,VALID,0,VALID,100,VALID,-0.0849042,VALID,19.2086,VALID,180,VALID,0.286204,
Tue Nov 30 19:02:00 2004,VALID,917.339,VALID,0,VALID,100,VALID,-0.0679233,VALID,19.2215,VALID,180,VALID,0.0979421,
Tue Nov 30 19:03:00 2004,VALID,917.323,VALID,0,VALID,100,VALID,-0.101885,VALID,19.2151,VALID,180,VALID,0.0373884,
Tue Nov 30 19:04:00 2004,VALID,917.301,VALID,0,VALID,100,VALID,-0.0679233,VALID,19.1957,VALID,180,VALID,0.0797602,
Tue Nov 30 19:05:00 2004,VALID,917.286,VALID,0,VALID,100,VALID,-0.0849042,VALID,19.1954,VALID,180,VALID,0.134673,
Tue Nov 30 19:06:00 2004,VALID,917.269,VALID,0,VALID,100,VALID,-0.0849042,VALID,19.2056,VALID,180,VALID,0.19931,
Tue Nov 30 19:07:00 2004,VALID,917.244,VALID,0,VALID,100,VALID,-0.0849042,VALID,19.1865,VALID,147,VALID,0.507626,
Tue Nov 30 19:08:00 2004,VALID,917.226,VALID,0,VALID,100,VALID,-0.0509425,VALID,19.1673,VALID,125,VALID,0.470203,
Tue Nov 30 19:09:00 2004,VALID,917.213,VALID,0,VALID,100,VALID,-0.0849042,VALID,19.1512,VALID,122,VALID,0.350852,
Tue Nov 30 19:10:00 2004,VALID,917.202,VALID,0,VALID,100,VALID,-0.0679233,VALID,19.1477,VALID,96,VALID,0.456395,
Tue Nov 30 19:11:00 2004,VALID,917.199,VALID,0,VALID,100,VALID,-0.0679233,VALID,19.1341,VALID,69,VALID,0.573171,
Tue Nov 30 19:12:00 2004,VALID,917.198,VALID,0,VALID,100,VALID,-0.0679233,VALID,19.1316,VALID,61,VALID,0.587936,
Tue Nov 30 19:13:00 2004,VALID,917.191,VALID,0,VALID,100,VALID,-0.0509425,VALID,19.1281,VALID,52,VALID,0.549132,
Tue Nov 30 19:14:00 2004,VALID,917.193,VALID,0,VALID,100,VALID,-0.0849042,VALID,19.1281,VALID,52,VALID,0.509055,
Tue Nov 30 19:15:00 2004,VALID,917.183,VALID,0,VALID,100,VALID,-0.0849042,VALID,19.1216,VALID,52,VALID,0.571837,
Tue Nov 30 19:16:00 2004,VALID,917.175,VALID,0,VALID,100,VALID,-0.0849042,VALID,19.1321,VALID,52,VALID,0.630996,
Tue Nov 30 19:17:00 2004,VALID,917.156,VALID,0,VALID,100,VALID,-0.0679233,VALID,19.1187,VALID,45,VALID,0.690168,
Tue Nov 30 19:18:00 2004,VALID,917.141,VALID,0,VALID,100,VALID,-0.101885,VALID,19.1184,VALID,33,VALID,0.773849,
Tue Nov 30 19:19:00 2004,VALID,917.113,VALID,0,VALID,100,VALID,-0.0849042,VALID,19.1184,VALID,32,VALID,0.864826,
Tue Nov 30 19:20:00 2004,VALID,917.1,VALID,0,VALID,100,VALID,-0.0849042,VALID,19.0988,VALID,34,VALID,0.809152,
Tue Nov 30 19:21:00 2004,VALID,917.078,VALID,0,VALID,100,VALID,-0.0679233,VALID,19.1023,VALID,41,VALID,0.597202,
Tue Nov 30 19:22:00 2004,VALID,917.073,VALID,0,VALID,100,VALID,-0.118866,VALID,19.1127,VALID,43,VALID,0.513626,
Tue Nov 30 19:23:00 2004,VALID,917.053,VALID,0,VALID,100,VALID,-0.101885,VALID,19.106,VALID,43,VALID,0.302083,
Tue Nov 30 19:24:00 2004,VALID,917.04,VALID,0,VALID,100,VALID,-0.101885,VALID,19.1025,VALID,43,VALID,0.515997,
Tue Nov 30 19:25:00 2004,VALID,917.019,VALID,0,VALID,100,VALID,-0.0849042,VALID,19.0829,VALID,43,VALID,0.495561,
Tue Nov 30 19:26:00 2004,VALID,917.007,VALID,0,VALID,100,VALID,-0.0849042,VALID,19.0963,VALID,43,VALID,0.633721,
Tue Nov 30 19:27:00 2004,VALID,916.983,VALID,0,VALID,100,VALID,-0.101885,VALID,19.1,VALID,44,VALID,0.685826,
Tue Nov 30 19:28:00 2004,VALID,916.967,VALID,0,VALID,100,VALID,-0.101885,VALID,19.0762,VALID,44,VALID,0.664063,
Tue Nov 30 19:29:00 2004,VALID,916.93,VALID,0,VALID,100,VALID,-0.101885,VALID,19.0868,VALID,47,VALID,0.856213,
Tue Nov 30 19:30:00 2004,VALID,916.908,VALID,0,VALID,100,VALID,-0.101885,VALID,19.0772,VALID,56,VALID,0.808854,
Tue Nov 30 19:31:00 2004,VALID,916.877,VALID,0,VALID,100,VALID,-0.101885,VALID,19.064,VALID,68,VALID,0.775856,
Tue Nov 30 19:32:00 2004,VALID,916.855,VALID,0,VALID,100,VALID,-0.101885,VALID,19.0474,VALID,73,VALID,0.934896,
Tue Nov 30 19:33:00 2004,VALID,916.833,VALID,0,VALID,100,VALID,-0.118866,VALID,19.0516,VALID,73,VALID,0.718568,
Tue Nov 30 19:34:00 2004,VALID,916.816,VALID,0,VALID,100,VALID,-0.101885,VALID,19.0379,VALID,79,VALID,0.858817,
Tue Nov 30 19:35:00 2004,VALID,916.809,VALID,0,VALID,100,VALID,-0.101885,VALID,19.058,VALID,65,VALID,0.651278,
Tue Nov 30 19:36:00 2004,VALID,916.797,VALID,0,VALID,100,VALID,-0.118866,VALID,19.0645,VALID,64,VALID,0.697218,
Tue Nov 30 19:37:00 2004,VALID,916.785,VALID,0,VALID,100,VALID,-0.101885,VALID,19.064,VALID,71,VALID,0.664063,
Tue Nov 30 19:38:00 2004,VALID,916.771,VALID,0,VALID,100,VALID,-0.0849042,VALID,19.0804,VALID,75,VALID,0.398056,
Tue Nov 30 19:39:00 2004,VALID,916.764,VALID,0,VALID,100,VALID,-0.0849042,VALID,19.0767,VALID,96,VALID,0.682227,
Tue Nov 30 19:40:00 2004,VALID,916.745,VALID,0,VALID,100,VALID,-0.0849042,VALID,19.0831,VALID,99,VALID,0.478993,
Tue Nov 30 19:41:00 2004,VALID,916.722,VALID,0,VALID,100,VALID,-0.0849042,VALID,19.0935,VALID,90,VALID,0.4758,
Tue Nov 30 19:42:00 2004,VALID,916.695,VALID,0,VALID,100,VALID,-0.101885,VALID,19.0638,VALID,31,VALID,0.712612,
Tue Nov 30 19:43:00 2004,VALID,916.678,VALID,0,VALID,100,VALID,-0.0849042,VALID,19.0282,VALID,33,VALID,0.579167,
Tue Nov 30 19:44:00 2004,VALID,916.652,VALID,0,VALID,100,VALID,-0.101885,VALID,19.0215,VALID,37,VALID,0.590946,
Tue Nov 30 19:45:00 2004,VALID,916.64,VALID,0,VALID,100,VALID,-0.0679233,VALID,19.0089,VALID,37,VALID,0.501817,
Tue Nov 30 19:46:00 2004,VALID,916.634,VALID,0,VALID,100,VALID,-0.0849042,VALID,18.9992,VALID,37,VALID,0.393029,
Tue Nov 30 19:47:00 2004,VALID,916.625,VALID,0,VALID,100,VALID,-0.0849042,VALID,18.9867,VALID,37,VALID,0.227751,
Tue Nov 30 19:48:00 2004,VALID,916.628,VALID,0,VALID,100,VALID,-0.101885,VALID,18.9671,VALID,37,VALID,0.0105378,
Tue Nov 30 19:49:00 2004,VALID,916.632,VALID,0,VALID,100,VALID,-0.0849042,VALID,18.9577,VALID,36,VALID,0,
Tue Nov 30 19:50:00 2004,VALID,916.622,VALID,0,VALID,100,VALID,-0.0849042,VALID,18.954,VALID,36,VALID,0,
Tue Nov 30 19:51:00 2004,VALID,916.605,VALID,0,VALID,100,VALID,-0.0849042,VALID,18.9381,VALID,37,VALID,0,
Tue Nov 30 19:52:00 2004,VALID,916.604,VALID,0,VALID,100,VALID,-0.101885,VALID,18.9413,VALID,37,VALID,0.0335582,
Tue Nov 30 19:53:00 2004,VALID,916.584,VALID,0,VALID,100,VALID,-0.101885,VALID,18.8859,VALID,37,VALID,0.104353,
Tue Nov 30 19:54:00 2004,VALID,916.581,VALID,0,VALID,100,VALID,-0.118866,VALID,18.8869,VALID,37,VALID,0.226389,
Tue Nov 30 19:55:00 2004,VALID,916.582,VALID,0,VALID,100,VALID,-0.118866,VALID,18.8578,VALID,37,VALID,0.205729,
Tue Nov 30 19:56:00 2004,VALID,916.571,VALID,0,VALID,100,VALID,-0.0849042,VALID,18.8382,VALID,37,VALID,0.306836,
Tue Nov 30 19:57:00 2004,VALID,916.562,VALID,0,VALID,100,VALID,-0.0849042,VALID,18.8248,VALID,37,VALID,0.468359,
Tue Nov 30 19:58:00 2004,VALID,916.558,VALID,0,VALID,100,VALID,-0.0679233,VALID,18.8151,VALID,36,VALID,0.343572,
Tue Nov 30 19:59:00 2004,VALID,916.551,VALID,0,VALID,100,VALID,-0.0849042,VALID,18.7928,VALID,36,VALID,0.263579,
Tue Nov 30 20:00:00 2004,VALID,916.55,VALID,0,VALID,100,VALID,-0.0849042,VALID,18.7672,VALID,36,VALID,0.240916,
Tue Nov 30 20:01:00 2004,VALID,916.546,VALID,0,VALID,100,VALID,-0.0849042,VALID,18.7446,VALID,37,VALID,0.114769,
Tue Nov 30 20:02:00 2004,VALID,916.529,VALID,0,VALID,100,VALID,-0.0169808,VALID,18.7401,VALID,36,VALID,0,
Tue Nov 30 20:03:00 2004,VALID,916.515,VALID,0,VALID,100,VALID,0,VALID,18.7528,VALID,37,VALID,0,
Tue Nov 30 20:04:00 2004,VALID,916.5,VALID,0,VALID,100,VALID,0.0169808,VALID,18.7821,VALID,37,VALID,0,
Tue Nov 30 20:05:00 2004,VALID,916.476,VALID,0,VALID,100,VALID,0,VALID,18.8179,VALID,37,VALID,0.169779,
Tue Nov 30 20:06:00 2004,VALID,916.462,VALID,0,VALID,100,VALID,0,VALID,18.8661,VALID,36,VALID,0.213246,
Tue Nov 30 20:07:00 2004,VALID,916.433,VALID,0,VALID,100,VALID,0,VALID,18.8949,VALID,36,VALID,0.0470567,
Tue Nov 30 20:08:00 2004,VALID,916.43,VALID,0,VALID,100,VALID,0.0169808,VALID,18.8335,VALID,36,VALID,0,
Tue Nov 30 20:09:00 2004,VALID,916.411,VALID,0,VALID,100,VALID,0.0339617,VALID,18.8465,VALID,36,VALID,0.25,
Tue Nov 30 20:10:00 2004,VALID,916.405,VALID,0,VALID,100,VALID,0,VALID,18.8887,VALID,36,VALID,0.281597,
Tue Nov 30 20:11:00 2004,VALID,916.412,VALID,0,VALID,100,VALID,0,VALID,18.9048,VALID,35,VALID,0,
Tue Nov 30 20:12:00 2004,VALID,916.41,VALID,0,VALID,100,VALID,0.0169808,VALID,18.882,VALID,36,VALID,0,
Tue Nov 30 20:13:00 2004,VALID,916.425,VALID,0,VALID,100,VALID,0.0169808,VALID,18.8559,VALID,35,VALID,0,
Tue Nov 30 20:14:00 2004,VALID,916.428,VALID,0,VALID,100,VALID,0,VALID,18.8395,VALID,35,VALID,0,
Tue Nov 30 20:15:00 2004,VALID,916.43,VALID,0,VALID,100,VALID,0,VALID,18.8407,VALID,35,VALID,0,
Tue Nov 30 20:16:00 2004,VALID,916.439,VALID,0,VALID,100,VALID,0,VALID,18.7987,VALID,35,VALID,0,
Tue Nov 30 20:17:00 2004,VALID,916.417,VALID,0,VALID,100,VALID,0,VALID,18.766,VALID,35,VALID,0,
Tue Nov 30 20:18:00 2004,VALID,916.406,VALID,0,VALID,100,VALID,0,VALID,18.7535,VALID,35,VALID,0,
Tue Nov 30 20:19:00 2004,VALID,916.388,VALID,0,VALID,100,VALID,0.0339617,VALID,18.7598,VALID,35,VALID,0.172049,
Tue Nov 30 20:20:00 2004,VALID,916.368,VALID,0,VALID,100,VALID,0.0169808,VALID,18.7886,VALID,35,VALID,0.472569,
Tue Nov 30 20:21:00 2004,VALID,916.364,VALID,0,VALID,100,VALID,0,VALID,18.841,VALID,36,VALID,0.734375,
Tue Nov 30 20:22:00 2004,VALID,916.368,VALID,0,VALID,100,VALID,0,VALID,18.7985,VALID,35,VALID,0.766319,
Tue Nov 30 20:23:00 2004,VALID,916.366,VALID,0,VALID,100,VALID,0,VALID,18.7761,VALID,35,VALID,0.728338,
Tue Nov 30 20:24:00 2004,VALID,916.382,VALID,0,VALID,100,VALID,-0.0169808,VALID,18.7925,VALID,35,VALID,0.730469,
Tue Nov 30 20:25:00 2004,VALID,916.387,VALID,0,VALID,100,VALID,0,VALID,18.8308,VALID,34,VALID,0.831395,
Tue Nov 30 20:26:00 2004,VALID,916.397,VALID,0,VALID,100,VALID,-0.0169808,VALID,18.9053,VALID,33,VALID,0.703516,
Tue Nov 30 20:27:00 2004,VALID,916.403,VALID,0,VALID,100,VALID,-0.0509425,VALID,18.944,VALID,32,VALID,0.836979,
Tue Nov 30 20:28:00 2004,VALID,916.411,VALID,0,VALID,100,VALID,0,VALID,18.9768,VALID,31,VALID,0.785429,
Tue Nov 30 20:29:00 2004,VALID,916.414,VALID,0,VALID,100,VALID,-0.0169808,VALID,18.9537,VALID,34,VALID,0.790799,
Tue Nov 30 20:30:00 2004,VALID,916.403,VALID,0,VALID,100,VALID,-0.0339617,VALID,18.921,VALID,42,VALID,0.786156,
Tue Nov 30 20:31:00 2004,VALID,916.419,VALID,0,VALID,100,VALID,-0.0169808,VALID,18.9023,VALID,46,VALID,0.924237,
Tue Nov 30 20:32:00 2004,VALID,916.427,VALID,0,VALID,100,VALID,-0.0169808,VALID,18.8991,VALID,57,VALID,0.843023,
Tue Nov 30 20:33:00 2004,VALID,916.444,VALID,0,VALID,100,VALID,0,VALID,18.8829,VALID,64,VALID,0.819382,
Tue Nov 30 20:34:00 2004,VALID,916.448,VALID,0,VALID,100,VALID,0,VALID,18.8636,VALID,64,VALID,0.719599,